Time,TemperatureF,DewpointF,PressureIn,WindDirection,WindDirectionDegrees,WindSpeedMPH,WindSpeedGustMPH,Humidity,HourlyPrecipIn,Conditions,Clouds,dailyrainin,SoftwareType,DateUTC
2013-10-29 00:04:00,71.0,67.6,30.03,ESE,112,8.1,8.1,89,0.00,CLR,,0.00,WeatherDisplay:10.37,2013-10-29 05:04:00,
2013-10-29 00:09:00,70.9,67.8,30.03,SE,135,6.9,6.9,90,0.00,CLR,,0.00,WeatherDisplay:10.37,2013-10-29 05:09:00,
2013-10-29 00:14:00,70.9,67.8,30.03,SE,135,8.1,8.1,90,0.00,CLR,,0.00,WeatherDisplay:10.37,2013-10-29 05:14:00,
2013-10-29 00:19:00,70.7,67.6,30.03,SSE,166,5.8,6.2,90,0.00,CLR,,0.00,WeatherDisplay:10.37,2013-10-29 05:19:00,
2013-10-29 00:24:00,70.7,67.6,30.03,ESE,108,11.5,11.5,90,0.00,CLR,,0.00,WeatherDisplay:10.37,2013-10-29 05:24:00,
2013-10-29 00:29:00,70.7,67.9,30.03,SE,135,9.2,9.2,91,0.00,CLR,,0.00,WeatherDisplay:10.37,2013-10-29 05:29:00,
2013-10-29 00:34:00,70.7,67.9,30.04,SE,129,10.4,10.4,91,0.00,CLR,,0.00,WeatherDisplay:10.37,2013-10-29 05:34:00,
2013-10-29 00:39:00,70.7,67.9,30.04,SE,142,11.5,11.5,91,0.00,CLR,,0.00,WeatherDisplay:10.37,2013-10-29 05:39:00,
2013-10-29 00:44:00,70.8,68.0,30.03,SE,134,8.1,8.1,91,0.00,CLR,,0.00,WeatherDisplay:10.37,2013-10-29 05:44:00,
2013-10-29 00:49:00,70.7,67.9,30.03,SE,130,10.4,10.4,91,0.00,CLR,,0.00,WeatherDisplay:10.37,2013-10-29 05:49:00,
2013-10-29 00:54:00,70.7,67.9,30.03,SE,131,10.4,10.4,91,0.00,CLR,,0.00,WeatherDisplay:10.37,2013-10-29 05:54:00,
2013-10-29 00:59:00,70.7,67.9,30.03,SE,125,11.5,11.5,91,0.00,CLR,,0.00,WeatherDisplay:10.37,2013-10-29 05:59:00,
2013-10-29 01:04:00,70.7,67.9,30.03,SE,140,9.2,9.2,91,0.00,CLR,,0.00,WeatherDisplay:10.37,2013-10-29 06:04:00,
2013-10-29 01:09:00,70.7,67.9,30.03,SE,146,11.5,11.5,91,0.00,CLR,,0.00,WeatherDisplay:10.37,2013-10-29 06:09:00,
2013-10-29 01:14:00,70.8,68.0,30.03,SE,142,11.5,11.5,91,0.00,CLR,,0.00,WeatherDisplay:10.37,2013-10-29 06:14:00,
2013-10-29 01:19:00,70.7,67.9,30.03,SE,135,11.5,11.5,91,0.00,CLR,,0.00,WeatherDisplay:10.37,2013-10-29 06:19:00,
2013-10-29 01:24:00,70.7,68.3,30.03,SE,135,8.1,8.1,92,0.00,CLR,,0.00,WeatherDisplay:10.37,2013-10-29 06:24:00,
2013-10-29 01:29:00,70.8,68.4,30.03,SE,146,10.4,10.4,92,0.00,CLR,,0.00,WeatherDisplay:10.37,2013-10-29 06:29:00,
2013-10-29 01:34:00,70.8,68.4,30.03,SE,143,11.5,11.5,92,0.00,CLR,,0.00,WeatherDisplay:10.37,2013-10-29 06:34:00,
2013-10-29 01:39:00,70.8,68.4,30.03,SSE,165,8.1,8.1,92,0.00,CLR,,0.00,WeatherDisplay:10.37,2013-10-29 06:39:00,
2013-10-29 01:44:00,70.7,68.3,30.03,ESE,115,11.5,11.5,92,0.00,CLR,,0.00,WeatherDisplay:10.37,2013-10-29 06:44:00,
2013-10-29 01:49:00,70.9,68.5,30.03,SE,134,12.7,12.7,92,0.00,CLR,,0.00,WeatherDisplay:10.37,2013-10-29 06:49:00,
2013-10-29 01:54:00,70.9,68.5,30.03,SSE,148,10.4,10.4,92,0.00,CLR,,0.00,WeatherDisplay:10.37,2013-10-29 06:54:00,
2013-10-29 01:59:00,70.9,68.5,30.03,ESE,122,10.4,10.4,92,0.00,CLR,,0.00,WeatherDisplay:10.37,2013-10-29 06:59:00,
2013-10-29 02:04:00,70.8,68.4,30.03,SE,146,11.5,11.5,92,0.00,CLR,,0.00,WeatherDisplay:10.37,2013-10-29 07:04:00,
2013-10-29 02:09:00,70.8,68.4,30.03,SSE,150,10.0,10.0,92,0.00,CLR,,0.00,WeatherDisplay:10.37,2013-10-29 07:09:00,
2013-10-29 02:14:00,70.9,68.5,30.03,SE,141,11.5,11.5,92,0.00,CLR,,0.00,WeatherDisplay:10.37,2013-10-29 07:14:00,
2013-10-29 02:19:00,71.0,68.6,30.03,SSE,153,10.4,10.4,92,0.00,CLR,,0.00,WeatherDisplay:10.37,2013-10-29 07:19:00,
2013-10-29 02:24:00,71.0,68.6,30.03,SSE,159,6.9,6.9,92,0.00,CLR,,0.00,WeatherDisplay:10.37,2013-10-29 07:24:00,
2013-10-29 02:29:00,71.0,68.6,30.03,SE,129,10.4,10.4,92,0.00,CLR,,0.00,WeatherDisplay:10.37,2013-10-29 07:29:00,
2013-10-29 02:34:00,71.1,68.7,30.03,SE,134,10.4,10.4,92,0.00,CLR,,0.00,WeatherDisplay:10.37,2013-10-29 07:34:00,
2013-10-29 02:39:00,71.1,68.7,30.03,SE,134,9.2,9.2,92,0.00,CLR,,0.00,WeatherDisplay:10.37,2013-10-29 07:39:00,
2013-10-29 02:44:00,71.1,68.7,30.03,SSE,166,10.4,10.4,92,0.00,CLR,,0.00,WeatherDisplay:10.37,2013-10-29 07:44:00,
2013-10-29 02:49:00,71.0,68.6,30.03,ESE,121,10.4,10.4,92,0.00,CLR,,0.00,WeatherDisplay:10.37,2013-10-29 07:49:00,
2013-10-29 02:54:00,71.0,68.6,30.03,South,179,11.5,11.5,92,0.00,CLR,,0.00,WeatherDisplay:10.37,2013-10-29 07:54:00,
2013-10-29 02:59:00,71.0,68.6,30.02,SE,139,11.5,11.5,92,0.00,CLR,,0.00,WeatherDisplay:10.37,2013-10-29 07:59:00,
2013-10-29 03:04:00,71.0,68.9,30.02,SE,135,11.5,11.5,93,0.00,CLR,,0.00,WeatherDisplay:10.37,2013-10-29 08:04:00,
2013-10-29 03:09:00,71.1,69.0,30.02,East,85,6.9,6.9,93,0.00,CLR,,0.00,WeatherDisplay:10.37,2013-10-29 08:09:00,
2013-10-29 03:14:00,71.1,69.0,30.02,SE,140,12.7,12.7,93,0.00,CLR,,0.00,WeatherDisplay:10.37,2013-10-29 08:14:00,
2013-10-29 03:19:00,71.2,69.1,30.01,SE,136,12.7,12.7,93,0.00,CLR,,0.00,WeatherDisplay:10.37,2013-10-29 08:19:00,
2013-10-29 03:24:00,71.2,69.1,30.02,SSE,154,11.5,11.5,93,0.00,CLR,,0.00,WeatherDisplay:10.37,2013-10-29 08:24:00,
2013-10-29 03:29:00,71.3,69.2,30.02,SE,131,11.5,11.5,93,0.00,CLR,,0.00,WeatherDisplay:10.37,2013-10-29 08:29:00,
2013-10-29 03:34:00,71.4,69.0,30.01,SSE,153,13.8,13.8,92,0.00,CLR,,0.00,WeatherDisplay:10.37,2013-10-29 08:34:00,
2013-10-29 03:39:00,71.4,69.0,30.02,SE,146,11.5,11.5,92,0.00,CLR,,0.00,WeatherDisplay:10.37,2013-10-29 08:39:00,
2013-10-29 03:44:00,71.4,69.0,30.02,SSE,163,10.0,10.0,92,0.00,CLR,,0.00,WeatherDisplay:10.37,2013-10-29 08:44:00,
2013-10-29 03:49:00,71.3,68.9,30.02,SSE,160,10.4,10.4,92,0.00,CLR,,0.00,WeatherDisplay:10.37,2013-10-29 08:49:00,
2013-10-29 03:54:00,71.3,68.9,30.02,SSE,147,5.8,5.8,92,0.00,CLR,,0.00,WeatherDisplay:10.37,2013-10-29 08:54:00,
2013-10-29 03:59:00,71.2,69.1,30.02,South,173,9.2,9.2,93,0.00,CLR,,0.00,WeatherDisplay:10.37,2013-10-29 08:59:00,
2013-10-29 04:04:00,71.2,69.1,30.02,SE,141,8.1,8.1,93,0.00,CLR,,0.00,WeatherDisplay:10.37,2013-10-29 09:04:00,
2013-10-29 04:09:00,71.2,69.1,30.02,SSE,148,6.9,6.9,93,0.00,CLR,,0.00,WeatherDisplay:10.37,2013-10-29 09:09:00,
2013-10-29 04:14:00,71.1,69.0,30.02,SE,131,10.4,10.4,93,0.00,CLR,,0.00,WeatherDisplay:10.37,2013-10-29 09:14:00,
2013-10-29 04:19:00,71.1,69.0,30.02,SSE,156,11.5,11.5,93,0.00,CLR,,0.00,WeatherDisplay:10.37,2013-10-29 09:19:00,
2013-10-29 04:24:00,71.1,69.0,30.02,South,179,9.2,9.2,93,0.00,CLR,,0.00,WeatherDisplay:10.37,2013-10-29 09:24:00,
2013-10-29 04:29:00,71.1,69.0,30.02,SE,146,11.5,11.5,93,0.00,CLR,,0.00,WeatherDisplay:10.37,2013-10-29 09:29:00,
2013-10-29 04:34:00,71.1,69.0,30.02,SE,127,10.4,10.4,93,0.00,CLR,,0.00,WeatherDisplay:10.37,2013-10-29 09:34:00,
2013-10-29 04:39:00,71.0,68.9,30.01,ESE,122,8.0,8.0,93,0.00,CLR,,0.00,WeatherDisplay:10.37,2013-10-29 09:39:00,
2013-10-29 04:44:00,71.0,68.9,30.01,SE,129,8.1,8.1,93,0.00,CLR,,0.00,WeatherDisplay:10.37,2013-10-29 09:44:00,
2013-10-29 04:49:00,70.9,68.8,30.01,SE,141,8.1,8.1,93,0.00,CLR,,0.00,WeatherDisplay:10.37,2013-10-29 09:49:00,
2013-10-29 04:54:00,70.9,68.8,30.01,SSE,151,8.1,8.1,93,0.00,CLR,,0.00,WeatherDisplay:10.37,2013-10-29 09:54:00,
2013-10-29 04:59:00,70.9,68.8,30.02,SE,129,8.1,8.1,93,0.00,CLR,,0.00,WeatherDisplay:10.37,2013-10-29 09:59:00,
2013-10-29 05:04:00,70.8,68.7,30.01,SE,146,8.1,8.1,93,0.00,CLR,,0.00,WeatherDisplay:10.37,2013-10-29 10:04:00,
2013-10-29 05:09:00,70.7,68.6,30.01,SSE,154,6.9,6.9,93,0.00,CLR,,0.00,WeatherDisplay:10.37,2013-10-29 10:09:00,
2013-10-29 05:14:00,70.7,68.6,30.01,SE,130,9.2,9.2,93,0.00,CLR,,0.00,WeatherDisplay:10.37,2013-10-29 10:14:00,
2013-10-29 05:19:00,70.6,68.5,30.02,East,100,5.0,5.0,93,0.00,CLR,,0.00,WeatherDisplay:10.37,2013-10-29 10:19:00,
2013-10-29 05:24:00,70.6,68.5,30.02,SE,145,6.9,6.9,93,0.00,CLR,,0.00,WeatherDisplay:10.37,2013-10-29 10:24:00,
2013-10-29 05:29:00,70.7,68.6,30.02,SE,142,9.2,9.2,93,0.00,CLR,,0.00,WeatherDisplay:10.37,2013-10-29 10:29:00,
2013-10-29 05:34:00,70.8,68.7,30.02,SE,140,8.1,8.1,93,0.00,CLR,,0.00,WeatherDisplay:10.37,2013-10-29 10:34:00,
2013-10-29 05:39:00,70.9,68.8,30.02,SE,131,5.8,5.8,93,0.00,CLR,,0.00,WeatherDisplay:10.37,2013-10-29 10:39:00,
2013-10-29 05:44:00,70.8,68.7,30.02,SE,129,6.9,6.9,93,0.00,CLR,,0.00,WeatherDisplay:10.37,2013-10-29 10:44:00,
2013-10-29 05:49:00,70.7,68.6,30.01,SE,125,5.8,5.8,93,0.00,CLR,,0.00,WeatherDisplay:10.37,2013-10-29 10:49:00,
2013-10-29 05:54:00,70.7,68.6,30.01,SE,142,5.8,5.8,93,0.00,CLR,,0.00,WeatherDisplay:10.37,2013-10-29 10:54:00,
2013-10-29 05:59:00,70.6,68.5,30.01,SSE,160,5.8,5.8,93,0.00,CLR,,0.00,WeatherDisplay:10.37,2013-10-29 10:59:00,
2013-10-29 06:04:00,70.6,68.5,30.01,SE,146,4.6,4.6,93,0.00,CLR,,0.00,WeatherDisplay:10.37,2013-10-29 11:04:00,
2013-10-29 06:09:00,70.5,68.4,30.01,South,184,6.9,6.9,93,0.00,CLR,,0.00,WeatherDisplay:10.37,2013-10-29 11:09:00,
2013-10-29 06:14:00,70.4,68.6,30.01,SSE,154,8.1,8.1,94,0.00,CLR,,0.00,WeatherDisplay:10.37,2013-10-29 11:14:00,
2013-10-29 06:19:00,70.4,68.6,30.01,SE,139,5.8,5.8,94,0.00,CLR,,0.00,WeatherDisplay:10.37,2013-10-29 11:19:00,
2013-10-29 06:24:00,70.4,68.6,30.01,SSE,153,4.6,4.6,94,0.00,CLR,,0.00,WeatherDisplay:10.37,2013-10-29 11:24:00,
2013-10-29 06:29:00,70.3,68.5,30.01,SSE,153,5.8,5.8,94,0.00,CLR,,0.00,WeatherDisplay:10.37,2013-10-29 11:29:00,
2013-10-29 06:34:00,70.2,68.4,30.01,SSE,152,6.0,6.0,94,0.00,CLR,,0.00,WeatherDisplay:10.37,2013-10-29 11:34:00,
2013-10-29 06:39:00,70.1,68.3,30.01,SSE,153,6.9,6.9,94,0.00,CLR,,0.00,WeatherDisplay:10.37,2013-10-29 11:39:00,
2013-10-29 06:44:00,70.1,68.3,30.01,SSE,150,5.8,5.8,94,0.00,CLR,,0.00,WeatherDisplay:10.37,2013-10-29 11:44:00,
2013-10-29 06:49:00,70.1,68.3,30.02,SSE,152,5.0,5.0,94,0.00,CLR,,0.00,WeatherDisplay:10.37,2013-10-29 11:49:00,
2013-10-29 06:54:00,70.2,68.4,30.01,SE,135,5.8,5.8,94,0.00,CLR,,0.00,WeatherDisplay:10.37,2013-10-29 11:54:00,
2013-10-29 06:59:00,70.2,68.4,30.02,SE,125,4.6,4.6,94,0.00,CLR,,0.00,WeatherDisplay:10.37,2013-10-29 11:59:00,
2013-10-29 07:04:00,70.3,68.5,30.02,SSE,153,8.1,8.1,94,0.00,CLR,,0.00,WeatherDisplay:10.37,2013-10-29 12:04:00,
2013-10-29 07:09:00,70.5,68.7,30.02,SSE,161,8.1,8.1,94,0.00,CLR,,0.00,WeatherDisplay:10.37,2013-10-29 12:09:00,
2013-10-29 07:14:00,70.5,68.7,30.02,SSE,159,9.2,9.2,94,0.00,CLR,,0.00,WeatherDisplay:10.37,2013-10-29 12:14:00,
2013-10-29 07:19:00,70.7,68.9,30.02,SSE,156,8.1,8.1,94,0.00,CLR,,0.00,WeatherDisplay:10.37,2013-10-29 12:19:00,
2013-10-29 07:24:00,70.7,68.9,30.02,SSE,159,6.9,6.9,94,0.00,CLR,,0.00,WeatherDisplay:10.37,2013-10-29 12:24:00,
2013-10-29 07:29:00,70.8,68.7,30.03,SSE,164,6.9,7.2,93,0.00,CLR,,0.00,WeatherDisplay:10.37,2013-10-29 12:29:00,
2013-10-29 07:34:00,70.9,68.8,30.03,SE,133,6.0,6.2,93,0.00,CLR,,0.00,WeatherDisplay:10.37,2013-10-29 12:34:00,
2013-10-29 07:39:00,70.9,68.8,30.03,SSE,161,3.5,4.3,93,0.00,CLR,,0.00,WeatherDisplay:10.37,2013-10-29 12:39:00,
2013-10-29 07:44:00,70.9,68.8,30.03,SE,131,5.8,5.8,93,0.00,CLR,,0.00,WeatherDisplay:10.37,2013-10-29 12:44:00,
2013-10-29 07:49:00,70.8,68.7,30.03,SE,146,4.6,4.6,93,0.00,CLR,,0.00,WeatherDisplay:10.37,2013-10-29 12:49:00,
2013-10-29 07:54:00,70.8,68.7,30.03,SE,139,4.0,4.0,93,0.00,CLR,,0.00,WeatherDisplay:10.37,2013-10-29 12:54:00,
2013-10-29 07:59:00,70.7,68.6,30.03,SSE,147,3.5,4.1,93,0.00,CLR,,0.00,WeatherDisplay:10.37,2013-10-29 12:59:00,
2013-10-29 08:04:00,70.7,68.6,30.03,SE,125,4.6,4.6,93,0.00,CLR,,0.00,WeatherDisplay:10.37,2013-10-29 13:04:00,
2013-10-29 08:09:00,70.7,68.9,30.03,SE,142,3.5,3.5,94,0.00,CLR,,0.00,WeatherDisplay:10.37,2013-10-29 13:09:00,
2013-10-29 08:14:00,70.7,68.9,30.04,SSE,153,3.5,3.5,94,0.00,CLR,,0.00,WeatherDisplay:10.37,2013-10-29 13:14:00,
2013-10-29 08:19:00,70.9,69.1,30.03,SE,143,3.5,3.5,94,0.00,CLR,,0.00,WeatherDisplay:10.37,2013-10-29 13:19:00,
2013-10-29 08:24:00,71.0,68.9,30.04,SE,139,3.5,3.5,93,0.00,CLR,,0.00,WeatherDisplay:10.37,2013-10-29 13:24:00,
2013-10-29 08:29:00,71.1,69.0,30.04,SSE,150,3.5,3.5,93,0.00,CLR,,0.00,WeatherDisplay:10.37,2013-10-29 13:29:00,
2013-10-29 08:34:00,71.1,69.0,30.04,SE,129,4.6,4.6,93,0.00,CLR,,0.00,WeatherDisplay:10.37,2013-10-29 13:34:00,
2013-10-29 08:39:00,71.2,69.1,30.04,SE,140,4.6,4.6,93,0.00,CLR,,0.00,WeatherDisplay:10.37,2013-10-29 13:39:00,
2013-10-29 08:44:00,71.3,69.5,30.04,SE,127,5.8,5.8,94,0.00,CLR,,0.00,WeatherDisplay:10.37,2013-10-29 13:44:00,
2013-10-29 08:49:00,71.6,69.5,30.04,SSE,148,3.5,3.5,93,0.00,CLR,,0.00,WeatherDisplay:10.37,2013-10-29 13:49:00,
2013-10-29 08:54:00,72.0,69.9,30.04,SE,124,3.5,3.5,93,0.00,CLR,,0.00,WeatherDisplay:10.37,2013-10-29 13:54:00,
2013-10-29 08:59:00,72.5,70.4,30.05,SE,139,6.9,6.9,93,0.00,CLR,,0.00,WeatherDisplay:10.37,2013-10-29 13:59:00,
2013-10-29 09:04:00,72.8,70.3,30.05,SE,146,3.5,3.7,92,0.00,CLR,,0.00,WeatherDisplay:10.37,2013-10-29 14:04:00,
2013-10-29 09:09:00,73.2,70.7,30.05,SSE,159,8.1,8.1,92,0.00,CLR,,0.00,WeatherDisplay:10.37,2013-10-29 14:09:00,
2013-10-29 09:14:00,73.6,71.1,30.05,SSE,150,11.5,11.5,92,0.00,CLR,,0.00,WeatherDisplay:10.37,2013-10-29 14:14:00,
2013-10-29 09:19:00,73.8,71.0,30.05,SSE,166,10.4,10.4,91,0.00,CLR,,0.00,WeatherDisplay:10.37,2013-10-29 14:19:00,
2013-10-29 09:24:00,74.0,71.2,30.05,SSE,160,8.1,8.1,91,0.00,CLR,,0.00,WeatherDisplay:10.37,2013-10-29 14:24:00,
2013-10-29 09:29:00,74.1,71.3,30.05,SSE,166,15.0,15.0,91,0.00,CLR,,0.00,WeatherDisplay:10.37,2013-10-29 14:29:00,
2013-10-29 09:34:00,74.3,71.5,30.05,SSE,151,11.5,11.5,91,0.00,CLR,,0.00,WeatherDisplay:10.37,2013-10-29 14:34:00,
2013-10-29 09:39:00,74.5,71.4,30.05,SSE,150,10.4,10.4,90,0.00,CLR,,0.00,WeatherDisplay:10.37,2013-10-29 14:39:00,
2013-10-29 09:44:00,74.7,71.6,30.05,South,172,11.5,11.5,90,0.00,CLR,,0.00,WeatherDisplay:10.37,2013-10-29 14:44:00,
2013-10-29 09:49:00,74.9,71.8,30.05,South,172,15.0,15.0,90,0.00,CLR,,0.00,WeatherDisplay:10.37,2013-10-29 14:49:00,
2013-10-29 09:54:00,75.2,71.7,30.05,SSE,156,16.1,16.1,89,0.00,CLR,,0.00,WeatherDisplay:10.37,2013-10-29 14:54:00,
2013-10-29 09:59:00,75.5,72.0,30.05,SE,131,11.5,11.5,89,0.00,CLR,,0.00,WeatherDisplay:10.37,2013-10-29 14:59:00,
2013-10-29 10:04:00,75.7,71.9,30.05,SSE,167,16.1,16.1,88,0.00,CLR,,0.00,WeatherDisplay:10.37,2013-10-29 15:04:00,
2013-10-29 10:09:00,75.7,71.9,30.06,SSE,166,15.0,15.0,88,0.00,CLR,,0.00,WeatherDisplay:10.37,2013-10-29 15:09:00,
2013-10-29 10:14:00,76.1,72.3,30.05,SSE,148,15.0,15.0,88,0.00,CLR,,0.00,WeatherDisplay:10.37,2013-10-29 15:14:00,
2013-10-29 10:19:00,76.4,72.2,30.06,South,169,13.8,13.8,87,0.00,CLR,,0.00,WeatherDisplay:10.37,2013-10-29 15:19:00,
2013-10-29 10:24:00,76.7,72.2,30.06,South,174,18.4,18.4,86,0.00,CLR,,0.00,WeatherDisplay:10.37,2013-10-29 15:24:00,
2013-10-29 10:29:00,76.9,72.4,30.06,SSE,163,11.5,11.5,86,0.00,CLR,,0.00,WeatherDisplay:10.37,2013-10-29 15:29:00,
2013-10-29 10:34:00,76.8,71.9,30.06,SE,146,13.8,13.8,85,0.00,CLR,,0.00,WeatherDisplay:10.37,2013-10-29 15:34:00,
2013-10-29 10:39:00,77.0,72.5,30.06,SSE,160,13.8,13.8,86,0.00,CLR,,0.00,WeatherDisplay:10.37,2013-10-29 15:39:00,
2013-10-29 10:44:00,77.2,72.0,30.06,SSE,156,18.4,18.4,84,0.00,CLR,,0.00,WeatherDisplay:10.37,2013-10-29 15:44:00,
2013-10-29 10:49:00,77.3,72.4,30.06,SSE,160,11.5,11.5,85,0.00,CLR,,0.00,WeatherDisplay:10.37,2013-10-29 15:49:00,
2013-10-29 10:54:00,77.3,72.4,30.05,South,176,11.5,11.5,85,0.00,CLR,,0.00,WeatherDisplay:10.37,2013-10-29 15:54:00,
2013-10-29 10:59:00,77.9,73.0,30.06,South,176,15.0,15.0,85,0.00,CLR,,0.00,WeatherDisplay:10.37,2013-10-29 15:59:00,
2013-10-29 11:04:00,78.1,72.5,30.05,South,191,11.5,11.5,83,0.00,CLR,,0.00,WeatherDisplay:10.37,2013-10-29 16:04:00,
2013-10-29 11:09:00,78.8,72.5,30.05,South,174,11.5,11.8,81,0.00,CLR,,0.00,WeatherDisplay:10.37,2013-10-29 16:09:00,
2013-10-29 11:14:00,78.6,72.3,30.06,SSE,153,17.3,17.3,81,0.00,CLR,,0.00,WeatherDisplay:10.37,2013-10-29 16:14:00,
2013-10-29 11:19:00,78.5,72.2,30.05,SSE,160,19.6,19.6,81,0.00,CLR,,0.00,WeatherDisplay:10.37,2013-10-29 16:19:00,
2013-10-29 11:24:00,78.5,71.8,30.05,South,170,15.0,15.0,80,0.00,CLR,,0.00,WeatherDisplay:10.37,2013-10-29 16:24:00,
2013-10-29 11:29:00,78.8,71.7,30.05,SSE,160,18.4,18.4,79,0.00,CLR,,0.00,WeatherDisplay:10.37,2013-10-29 16:29:00,
2013-10-29 11:34:00,78.8,71.4,30.05,SSE,154,18.4,18.4,78,0.00,CLR,,0.00,WeatherDisplay:10.37,2013-10-29 16:34:00,
2013-10-29 11:39:00,78.7,71.6,30.05,SSE,167,18.4,18.4,79,0.00,CLR,,0.00,WeatherDisplay:10.37,2013-10-29 16:39:00,
2013-10-29 11:44:00,79.0,72.3,30.05,South,173,16.1,16.1,80,0.00,CLR,,0.00,WeatherDisplay:10.37,2013-10-29 16:44:00,
2013-10-29 11:49:00,79.4,72.7,30.05,SSE,166,10.4,10.4,80,0.00,CLR,,0.00,WeatherDisplay:10.37,2013-10-29 16:49:00,
2013-10-29 11:54:00,79.9,72.0,30.04,SSE,147,11.5,11.5,77,0.00,CLR,,0.00,WeatherDisplay:10.37,2013-10-29 16:54:00,
2013-10-29 11:59:00,79.7,71.5,30.04,SSE,166,13.0,13.0,76,0.00,CLR,,0.00,WeatherDisplay:10.37,2013-10-29 16:59:00,
2013-10-29 12:04:00,79.9,72.0,30.04,SSE,160,16.1,16.1,77,0.00,CLR,,0.00,WeatherDisplay:10.37,2013-10-29 17:04:00,
2013-10-29 12:09:00,80.5,71.8,30.04,SSE,167,15.0,15.0,75,0.00,CLR,,0.00,WeatherDisplay:10.37,2013-10-29 17:09:00,
2013-10-29 12:14:00,80.6,71.1,30.03,SSW,204,21.9,21.9,73,0.00,CLR,,0.00,WeatherDisplay:10.37,2013-10-29 17:14:00,
2013-10-29 12:19:00,81.0,71.1,30.03,SSE,153,16.1,16.1,72,0.00,CLR,,0.00,WeatherDisplay:10.37,2013-10-29 17:19:00,
2013-10-29 12:24:00,80.9,71.0,30.03,South,176,16.1,16.1,72,0.00,CLR,,0.00,WeatherDisplay:10.37,2013-10-29 17:24:00,
2013-10-29 12:29:00,81.0,71.9,30.03,SE,127,9.2,9.2,74,0.00,CLR,,0.00,WeatherDisplay:10.37,2013-10-29 17:29:00,
2013-10-29 12:34:00,80.7,71.6,30.03,SE,145,11.5,11.5,74,0.00,CLR,,0.00,WeatherDisplay:10.37,2013-10-29 17:34:00,
2013-10-29 12:39:00,80.7,71.2,30.03,SE,134,18.4,18.4,73,0.00,CLR,,0.00,WeatherDisplay:10.37,2013-10-29 17:39:00,
2013-10-29 12:44:00,81.0,71.5,30.02,SE,145,13.8,13.8,73,0.00,CLR,,0.00,WeatherDisplay:10.37,2013-10-29 17:44:00,
2013-10-29 12:49:00,81.5,72.0,30.02,South,169,11.5,11.5,73,0.00,CLR,,0.00,WeatherDisplay:10.37,2013-10-29 17:49:00,
2013-10-29 12:54:00,81.0,70.7,30.02,SSE,155,17.3,17.3,71,0.00,CLR,,0.00,WeatherDisplay:10.37,2013-10-29 17:54:00,
2013-10-29 12:59:00,80.8,71.3,30.01,SSE,163,10.4,10.4,73,0.00,CLR,,0.00,WeatherDisplay:10.37,2013-10-29 17:59:00,
2013-10-29 13:04:00,81.0,71.1,30.01,South,178,12.7,12.7,72,0.00,CLR,,0.00,WeatherDisplay:10.37,2013-10-29 18:04:00,
2013-10-29 13:09:00,81.4,71.5,30.01,SSE,159,10.4,10.4,72,0.00,CLR,,0.00,WeatherDisplay:10.37,2013-10-29 18:09:00,
2013-10-29 13:14:00,81.8,71.5,30.01,SSE,159,11.5,11.5,71,0.00,CLR,,0.00,WeatherDisplay:10.37,2013-10-29 18:14:00,
2013-10-29 13:19:00,82.1,70.9,30.00,SSE,160,17.3,17.3,69,0.00,CLR,,0.00,WeatherDisplay:10.37,2013-10-29 18:19:00,
2013-10-29 13:24:00,82.1,71.3,30.00,South,183,19.6,19.6,70,0.00,CLR,,0.00,WeatherDisplay:10.37,2013-10-29 18:24:00,
2013-10-29 13:29:00,82.2,71.4,30.00,SSE,167,15.0,15.0,70,0.00,CLR,,0.00,WeatherDisplay:10.37,2013-10-29 18:29:00,
2013-10-29 13:34:00,82.4,71.6,29.99,South,169,15.0,15.0,70,0.00,CLR,,0.00,WeatherDisplay:10.37,2013-10-29 18:34:00,
2013-10-29 13:39:00,82.6,71.8,29.99,SSE,150,15.0,15.0,70,0.00,CLR,,0.00,WeatherDisplay:10.37,2013-10-29 18:39:00,
2013-10-29 13:44:00,82.2,71.4,29.99,SSE,149,11.5,11.5,70,0.00,CLR,,0.00,WeatherDisplay:10.37,2013-10-29 18:44:00,
2013-10-29 13:49:00,82.4,71.2,29.98,SE,146,13.8,13.8,69,0.00,CLR,,0.00,WeatherDisplay:10.37,2013-10-29 18:49:00,
2013-10-29 13:54:00,82.6,71.4,29.98,SSE,163,18.4,18.4,69,0.00,CLR,,0.00,WeatherDisplay:10.37,2013-10-29 18:54:00,
2013-10-29 13:59:00,82.8,71.2,29.97,ESE,119,16.1,16.1,68,0.00,CLR,,0.00,WeatherDisplay:10.37,2013-10-29 18:59:00,
2013-10-29 14:04:00,83.0,71.3,29.97,SE,135,13.8,13.8,68,0.00,CLR,,0.00,WeatherDisplay:10.37,2013-10-29 19:04:00,
2013-10-29 14:09:00,83.2,71.1,29.97,SE,145,11.5,11.5,67,0.00,CLR,,0.00,WeatherDisplay:10.37,2013-10-29 19:09:00,
2013-10-29 14:14:00,83.6,71.5,29.96,SSE,162,11.5,11.5,67,0.00,CLR,,0.00,WeatherDisplay:10.37,2013-10-29 19:14:00,
2013-10-29 14:19:00,83.9,71.3,29.96,South,176,13.8,13.8,66,0.00,CLR,,0.00,WeatherDisplay:10.37,2013-10-29 19:19:00,
2013-10-29 14:24:00,84.3,70.8,29.96,SE,141,16.1,16.1,64,0.00,CLR,,0.00,WeatherDisplay:10.37,2013-10-29 19:24:00,
2013-10-29 14:29:00,84.2,70.7,29.95,SSE,150,18.4,18.7,64,0.00,CLR,,0.00,WeatherDisplay:10.37,2013-10-29 19:29:00,
2013-10-29 14:34:00,84.1,70.6,29.95,SE,135,11.5,11.5,64,0.00,CLR,,0.00,WeatherDisplay:10.37,2013-10-29 19:34:00,
2013-10-29 14:39:00,83.7,70.2,29.95,SE,143,15.0,15.0,64,0.00,CLR,,0.00,WeatherDisplay:10.37,2013-10-29 19:39:00,
2013-10-29 14:44:00,83.5,70.5,29.95,SSE,163,12.7,12.7,65,0.00,CLR,,0.00,WeatherDisplay:10.37,2013-10-29 19:44:00,
2013-10-29 14:49:00,83.4,70.4,29.95,South,181,12.7,12.7,65,0.00,CLR,,0.00,WeatherDisplay:10.37,2013-10-29 19:49:00,
2013-10-29 14:54:00,83.6,70.6,29.95,SSE,160,10.4,10.4,65,0.00,CLR,,0.00,WeatherDisplay:10.37,2013-10-29 19:54:00,
2013-10-29 14:59:00,83.7,70.2,29.95,SSE,165,11.5,11.5,64,0.00,CLR,,0.00,WeatherDisplay:10.37,2013-10-29 19:59:00,
2013-10-29 15:04:00,83.9,70.4,29.95,SE,145,15.0,15.0,64,0.00,CLR,,0.00,WeatherDisplay:10.37,2013-10-29 20:04:00,
2013-10-29 15:09:00,83.9,70.9,29.95,East,90,10.4,10.4,65,0.00,CLR,,0.00,WeatherDisplay:10.37,2013-10-29 20:09:00,
2013-10-29 15:14:00,83.9,70.9,29.94,SSE,165,9.2,9.2,65,0.00,CLR,,0.00,WeatherDisplay:10.37,2013-10-29 20:14:00,
2013-10-29 15:19:00,84.0,70.0,29.94,ESE,117,11.5,11.5,63,0.00,CLR,,0.00,WeatherDisplay:10.37,2013-10-29 20:19:00,
2013-10-29 15:24:00,84.2,70.2,29.94,SSE,157,11.5,11.5,63,0.00,CLR,,0.00,WeatherDisplay:10.37,2013-10-29 20:24:00,
2013-10-29 15:29:00,84.5,70.5,29.94,SSE,160,15.0,15.0,63,0.00,CLR,,0.00,WeatherDisplay:10.37,2013-10-29 20:29:00,
2013-10-29 15:34:00,84.7,70.7,29.94,SE,146,20.7,20.7,63,0.00,CLR,,0.00,WeatherDisplay:10.37,2013-10-29 20:34:00,
2013-10-29 15:39:00,84.5,70.0,29.94,SSE,167,12.7,12.7,62,0.00,CLR,,0.00,WeatherDisplay:10.37,2013-10-29 20:39:00,
2013-10-29 15:44:00,84.7,70.2,29.95,SSE,154,9.2,9.2,62,0.00,CLR,,0.00,WeatherDisplay:10.37,2013-10-29 20:44:00,
2013-10-29 15:49:00,84.9,70.4,29.94,SE,142,12.7,12.7,62,0.00,CLR,,0.00,WeatherDisplay:10.37,2013-10-29 20:49:00,
2013-10-29 15:54:00,85.0,70.0,29.94,SSE,153,13.8,13.8,61,0.00,CLR,,0.00,WeatherDisplay:10.37,2013-10-29 20:54:00,
2013-10-29 15:59:00,85.0,70.0,29.94,SE,143,16.1,16.1,61,0.00,CLR,,0.00,WeatherDisplay:10.37,2013-10-29 20:59:00,
2013-10-29 16:04:00,85.0,70.5,29.94,SSE,163,11.5,11.5,62,0.00,CLR,,0.00,WeatherDisplay:10.37,2013-10-29 21:04:00,
2013-10-29 16:10:00,84.8,69.9,29.94,SE,129,12.7,12.7,61,0.00,CLR,,0.00,WeatherDisplay:10.37,2013-10-29 21:10:00,
2013-10-29 16:15:00,84.5,69.6,29.94,SE,138,13.8,13.8,61,0.00,CLR,,0.00,WeatherDisplay:10.37,2013-10-29 21:15:00,
2013-10-29 16:20:00,84.1,69.2,29.94,SSE,153,16.1,16.1,61,0.00,CLR,,0.00,WeatherDisplay:10.37,2013-10-29 21:20:00,
2013-10-29 16:25:00,84.1,69.7,29.93,ESE,117,11.5,11.5,62,0.00,CLR,,0.00,WeatherDisplay:10.37,2013-10-29 21:25:00,
2013-10-29 16:30:00,84.2,69.8,29.93,SE,137,11.5,11.5,62,0.00,CLR,,0.00,WeatherDisplay:10.37,2013-10-29 21:30:00,
2013-10-29 16:35:00,84.2,70.2,29.93,SSE,157,10.4,10.4,63,0.00,CLR,,0.00,WeatherDisplay:10.37,2013-10-29 21:35:00,
2013-10-29 16:40:00,84.2,69.8,29.93,SE,146,12.7,12.7,62,0.00,CLR,,0.00,WeatherDisplay:10.37,2013-10-29 21:40:00,
2013-10-29 16:45:00,84.1,69.7,29.93,SE,136,10.4,10.4,62,0.00,CLR,,0.00,WeatherDisplay:10.37,2013-10-29 21:45:00,
2013-10-29 16:50:00,84.0,70.0,29.93,SE,134,5.0,5.0,63,0.00,CLR,,0.00,WeatherDisplay:10.37,2013-10-29 21:50:00,
2013-10-29 16:55:00,83.9,70.0,29.94,SE,136,9.2,9.2,63,0.00,CLR,,0.00,WeatherDisplay:10.37,2013-10-29 21:55:00,
2013-10-29 17:00:00,83.8,69.9,29.93,ESE,119,11.5,11.5,63,0.00,CLR,,0.00,WeatherDisplay:10.37,2013-10-29 22:00:00,
2013-10-29 17:05:00,83.6,70.6,29.93,SE,139,6.9,6.9,65,0.00,CLR,,0.00,WeatherDisplay:10.37,2013-10-29 22:05:00,
2013-10-29 17:10:00,83.5,69.6,29.93,SSE,160,11.5,11.5,63,0.00,CLR,,0.00,WeatherDisplay:10.37,2013-10-29 22:10:00,
2013-10-29 17:15:00,83.4,69.9,29.93,SE,142,11.5,11.5,64,0.00,CLR,,0.00,WeatherDisplay:10.37,2013-10-29 22:15:00,
2013-10-29 17:20:00,83.2,70.2,29.93,ESE,105,8.1,8.1,65,0.00,CLR,,0.00,WeatherDisplay:10.37,2013-10-29 22:20:00,
2013-10-29 17:25:00,83.1,69.7,29.93,ENE,75,12.0,12.0,64,0.00,CLR,,0.00,WeatherDisplay:10.37,2013-10-29 22:25:00,
2013-10-29 17:30:00,83.0,70.0,29.93,SE,145,11.5,11.5,65,0.00,CLR,,0.00,WeatherDisplay:10.37,2013-10-29 22:30:00,
2013-10-29 17:35:00,82.9,69.5,29.94,SSE,150,12.7,12.7,64,0.00,CLR,,0.00,WeatherDisplay:10.37,2013-10-29 22:35:00,
2013-10-29 17:40:00,82.7,69.7,29.93,SE,131,11.5,11.5,65,0.00,CLR,,0.00,WeatherDisplay:10.37,2013-10-29 22:40:00,
2013-10-29 17:45:00,82.5,69.5,29.93,SSE,147,13.8,13.8,65,0.00,CLR,,0.00,WeatherDisplay:10.37,2013-10-29 22:45:00,
2013-10-29 17:50:00,82.4,69.9,29.93,SE,128,10.4,10.4,66,0.00,CLR,,0.00,WeatherDisplay:10.37,2013-10-29 22:50:00,
2013-10-29 17:55:00,82.2,69.7,29.94,ESE,122,9.2,9.2,66,0.00,CLR,,0.00,WeatherDisplay:10.37,2013-10-29 22:55:00,
2013-10-29 18:00:00,82.0,70.0,29.94,SE,146,10.4,10.4,67,0.00,CLR,,0.00,WeatherDisplay:10.37,2013-10-29 23:00:00,
2013-10-29 18:05:00,81.7,69.7,29.93,SE,129,12.7,12.7,67,0.00,CLR,,0.00,WeatherDisplay:10.37,2013-10-29 23:05:00,
2013-10-29 18:10:00,81.4,69.8,29.93,SE,124,11.5,11.5,68,0.00,CLR,,0.00,WeatherDisplay:10.37,2013-10-29 23:10:00,
2013-10-29 18:15:00,81.1,70.0,29.94,SE,146,11.5,11.5,69,0.00,CLR,,0.00,WeatherDisplay:10.37,2013-10-29 23:15:00,
2013-10-29 18:20:00,80.8,70.1,29.94,ESE,117,8.1,8.1,70,0.00,CLR,,0.00,WeatherDisplay:10.37,2013-10-29 23:20:00,
2013-10-29 18:25:00,80.5,70.2,29.94,SE,129,11.5,11.5,71,0.00,CLR,,0.00,WeatherDisplay:10.37,2013-10-29 23:25:00,
2013-10-29 18:30:00,80.3,70.0,29.95,East,99,9.2,9.2,71,0.00,CLR,,0.00,WeatherDisplay:10.37,2013-10-29 23:30:00,
2013-10-29 18:35:00,80.0,70.2,29.95,ESE,111,9.2,9.2,72,0.00,CLR,,0.00,WeatherDisplay:10.37,2013-10-29 23:35:00,
2013-10-29 18:40:00,80.0,70.2,29.95,SE,129,12.7,12.7,72,0.00,CLR,,0.00,WeatherDisplay:10.37,2013-10-29 23:40:00,
2013-10-29 18:45:00,79.8,70.0,29.94,ESE,123,11.5,11.5,72,0.00,CLR,,0.00,WeatherDisplay:10.37,2013-10-29 23:45:00,
2013-10-29 18:50:00,79.6,69.8,29.94,ESE,119,11.5,11.5,72,0.00,CLR,,0.00,WeatherDisplay:10.37,2013-10-29 23:50:00,
2013-10-29 18:55:00,79.4,69.6,29.95,SE,127,11.5,11.5,72,0.00,CLR,,0.00,WeatherDisplay:10.37,2013-10-29 23:55:00,
2013-10-29 19:00:00,79.3,69.5,29.95,ESE,122,11.5,11.5,72,0.00,CLR,,0.00,WeatherDisplay:10.37,2013-10-30 00:00:00,
2013-10-29 19:05:00,79.2,69.4,29.95,ESE,114,19.6,19.6,72,0.00,CLR,,0.00,WeatherDisplay:10.37,2013-10-30 00:05:00,
2013-10-29 19:10:00,79.0,69.2,29.95,ESE,121,17.3,17.3,72,0.00,CLR,,0.00,WeatherDisplay:10.37,2013-10-30 00:10:00,
2013-10-29 19:15:00,79.0,69.2,29.95,SE,128,11.5,11.5,72,0.00,CLR,,0.00,WeatherDisplay:10.37,2013-10-30 00:15:00,
2013-10-29 19:20:00,78.7,69.3,29.96,SE,131,11.5,11.5,73,0.00,CLR,,0.00,WeatherDisplay:10.37,2013-10-30 00:20:00,
2013-10-29 19:25:00,78.5,69.5,29.96,ESE,117,11.5,11.5,74,0.00,CLR,,0.00,WeatherDisplay:10.37,2013-10-30 00:25:00,
2013-10-29 19:30:00,78.1,69.1,29.96,ESE,118,11.5,11.5,74,0.00,CLR,,0.00,WeatherDisplay:10.37,2013-10-30 00:30:00,
2013-10-29 19:35:00,78.0,69.0,29.96,SE,128,12.7,12.7,74,0.00,CLR,,0.00,WeatherDisplay:10.37,2013-10-30 00:35:00,
2013-10-29 19:40:00,77.8,69.2,29.96,ESE,114,11.5,11.5,75,0.00,CLR,,0.00,WeatherDisplay:10.37,2013-10-30 00:40:00,
2013-10-29 19:45:00,77.6,69.0,29.96,ESE,109,13.8,13.8,75,0.00,CLR,,0.00,WeatherDisplay:10.37,2013-10-30 00:45:00,
2013-10-29 19:50:00,77.5,68.9,29.96,SE,145,13.8,13.8,75,0.00,CLR,,0.00,WeatherDisplay:10.37,2013-10-30 00:50:00,
2013-10-29 19:55:00,77.5,68.9,29.96,ESE,114,16.1,16.1,75,0.00,CLR,,0.00,WeatherDisplay:10.37,2013-10-30 00:55:00,
2013-10-29 20:00:00,77.2,68.7,29.97,ESE,120,11.5,11.5,75,0.00,CLR,,0.00,WeatherDisplay:10.37,2013-10-30 01:00:00,
2013-10-29 20:05:00,77.1,68.9,29.97,ESE,121,15.0,15.0,76,0.00,CLR,,0.00,WeatherDisplay:10.37,2013-10-30 01:05:00,
2013-10-29 20:10:00,76.9,68.8,29.97,SE,127,11.5,11.5,76,0.00,CLR,,0.00,WeatherDisplay:10.37,2013-10-30 01:10:00,
2013-10-29 20:15:00,76.8,68.7,29.97,SE,136,11.5,11.5,76,0.00,CLR,,0.00,WeatherDisplay:10.37,2013-10-30 01:15:00,
2013-10-29 20:20:00,76.6,68.8,29.98,SE,125,13.8,13.8,77,0.00,CLR,,0.00,WeatherDisplay:10.37,2013-10-30 01:20:00,
2013-10-29 20:25:00,76.5,68.7,29.98,ESE,118,13.8,13.8,77,0.00,CLR,,0.00,WeatherDisplay:10.37,2013-10-30 01:25:00,
2013-10-29 20:30:00,76.5,68.7,29.99,ESE,115,17.3,17.3,77,0.00,CLR,,0.00,WeatherDisplay:10.37,2013-10-30 01:30:00,
2013-10-29 20:35:00,76.4,68.7,29.99,SE,131,16.1,16.1,77,0.00,CLR,,0.00,WeatherDisplay:10.37,2013-10-30 01:35:00,
2013-10-29 20:40:00,76.3,68.6,29.99,SE,136,16.1,16.1,77,0.00,CLR,,0.00,WeatherDisplay:10.37,2013-10-30 01:40:00,
2013-10-29 20:45:00,76.2,68.5,29.98,SE,128,19.6,19.6,77,0.00,CLR,,0.00,WeatherDisplay:10.37,2013-10-30 01:45:00,
2013-10-29 20:50:00,76.1,68.7,29.98,ESE,117,19.6,19.6,78,0.00,CLR,,0.00,WeatherDisplay:10.37,2013-10-30 01:50:00,
2013-10-29 20:55:00,75.9,68.5,29.99,ESE,122,11.5,11.5,78,0.00,CLR,,0.00,WeatherDisplay:10.37,2013-10-30 01:55:00,
2013-10-29 21:00:00,75.7,68.7,29.98,ESE,121,15.0,15.0,79,0.00,CLR,,0.00,WeatherDisplay:10.37,2013-10-30 02:00:00,
2013-10-29 21:05:00,75.6,68.6,29.98,SE,136,11.5,11.5,79,0.00,CLR,,0.00,WeatherDisplay:10.37,2013-10-30 02:05:00,
2013-10-29 21:10:00,75.5,68.9,29.99,SE,138,19.6,19.6,80,0.00,CLR,,0.00,WeatherDisplay:10.37,2013-10-30 02:10:00,
2013-10-29 21:15:00,75.4,68.8,29.99,SE,140,13.0,13.0,80,0.00,CLR,,0.00,WeatherDisplay:10.37,2013-10-30 02:15:00,
2013-10-29 21:20:00,75.3,68.7,29.99,SE,141,9.2,9.2,80,0.00,CLR,,0.00,WeatherDisplay:10.37,2013-10-30 02:20:00,
2013-10-29 21:25:00,75.1,68.9,29.99,SE,129,11.5,11.5,81,0.00,CLR,,0.00,WeatherDisplay:10.37,2013-10-30 02:25:00,
2013-10-29 21:30:00,75.0,68.8,30.00,SE,136,15.0,15.0,81,0.00,CLR,,0.00,WeatherDisplay:10.37,2013-10-30 02:30:00,
2013-10-29 21:35:00,74.8,68.9,29.99,SE,136,11.5,11.5,82,0.00,CLR,,0.00,WeatherDisplay:10.37,2013-10-30 02:35:00,
2013-10-29 21:40:00,74.7,69.2,29.99,ESE,120,8.1,8.1,83,0.00,CLR,,0.00,WeatherDisplay:10.37,2013-10-30 02:40:00,
2013-10-29 21:45:00,74.5,69.0,29.99,ESE,103,8.1,8.1,83,0.00,CLR,,0.00,WeatherDisplay:10.37,2013-10-30 02:45:00,
2013-10-29 21:50:00,74.4,69.2,29.99,ESE,117,10.4,10.4,84,0.00,CLR,,0.00,WeatherDisplay:10.37,2013-10-30 02:50:00,
2013-10-29 21:55:00,74.2,69.4,29.99,SE,129,9.2,9.2,85,0.00,CLR,,0.00,WeatherDisplay:10.37,2013-10-30 02:55:00,
2013-10-29 22:00:00,74.1,69.3,29.99,SE,129,10.4,10.4,85,0.00,CLR,,0.00,WeatherDisplay:10.37,2013-10-30 03:00:00,
2013-10-29 22:05:00,73.9,69.4,29.99,ESE,118,12.7,12.7,86,0.00,CLR,,0.00,WeatherDisplay:10.37,2013-10-30 03:05:00,
2013-10-29 22:10:00,73.9,69.4,29.99,SE,134,9.2,9.2,86,0.00,CLR,,0.00,WeatherDisplay:10.37,2013-10-30 03:10:00,
2013-10-29 22:15:00,73.9,69.8,29.99,SE,127,11.5,11.5,87,0.00,CLR,,0.00,WeatherDisplay:10.37,2013-10-30 03:15:00,
2013-10-29 22:20:00,73.9,69.8,30.00,SE,131,11.5,11.5,87,0.00,CLR,,0.00,WeatherDisplay:10.37,2013-10-30 03:20:00,
2013-10-29 22:25:00,73.9,69.8,30.00,SE,124,11.5,11.5,87,0.00,CLR,,0.00,WeatherDisplay:10.37,2013-10-30 03:25:00,
2013-10-29 22:30:00,73.8,69.7,30.00,ESE,115,8.1,8.1,87,0.00,CLR,,0.00,WeatherDisplay:10.37,2013-10-30 03:30:00,
2013-10-29 22:35:00,73.8,69.7,29.99,SE,131,11.5,11.5,87,0.00,CLR,,0.00,WeatherDisplay:10.37,2013-10-30 03:35:00,
2013-10-29 22:40:00,73.7,69.9,29.99,SE,128,13.0,13.0,88,0.00,CLR,,0.00,WeatherDisplay:10.37,2013-10-30 03:40:00,
2013-10-29 22:45:00,73.7,69.9,29.99,ESE,102,13.8,13.8,88,0.00,CLR,,0.00,WeatherDisplay:10.37,2013-10-30 03:45:00,
2013-10-29 22:50:00,73.7,69.9,29.99,ESE,109,11.5,11.5,88,0.00,CLR,,0.00,WeatherDisplay:10.37,2013-10-30 03:50:00,
2013-10-29 22:55:00,73.6,69.8,29.99,ESE,117,10.4,10.4,88,0.00,CLR,,0.00,WeatherDisplay:10.37,2013-10-30 03:55:00,
2013-10-29 23:00:00,73.6,69.8,29.99,SSE,150,10.4,10.4,88,0.00,CLR,,0.00,WeatherDisplay:10.37,2013-10-30 04:00:00,
2013-10-29 23:01:00,73.6,69.8,29.99,ESE,122,10.4,10.4,88,0.00,CLR,,0.00,WeatherDisplay:10.37,2013-10-30 04:01:00,
2013-10-29 23:02:00,73.5,69.7,29.99,SSE,160,9.2,9.2,88,0.00,CLR,,0.00,WeatherDisplay:10.37,2013-10-30 04:02:00,
2013-10-29 23:07:00,73.5,70.1,29.99,SE,134,9.2,9.2,89,0.00,CLR,,0.00,WeatherDisplay:10.37,2013-10-30 04:07:00,
2013-10-29 23:12:00,73.5,70.1,29.99,SSE,152,12.7,12.7,89,0.00,CLR,,0.00,WeatherDisplay:10.37,2013-10-30 04:12:00,
2013-10-29 23:17:00,73.5,70.1,30.00,SE,134,10.4,10.4,89,0.00,CLR,,0.00,WeatherDisplay:10.37,2013-10-30 04:17:00,
2013-10-29 23:22:00,73.5,70.1,30.00,SE,135,9.0,9.0,89,0.00,CLR,,0.00,WeatherDisplay:10.37,2013-10-30 04:22:00,
2013-10-29 23:27:00,73.4,70.0,30.00,SE,136,9.2,9.2,89,0.00,CLR,,0.00,WeatherDisplay:10.37,2013-10-30 04:27:00,
2013-10-29 23:32:00,73.5,70.1,30.00,SE,135,11.5,11.5,89,0.00,CLR,,0.00,WeatherDisplay:10.37,2013-10-30 04:32:00,
2013-10-29 23:37:00,73.5,70.1,30.00,East,79,12.0,12.0,89,0.00,CLR,,0.00,WeatherDisplay:10.37,2013-10-30 04:37:00,
2013-10-29 23:42:00,73.5,70.4,30.00,SE,133,11.5,11.5,90,0.00,CLR,,0.00,WeatherDisplay:10.37,2013-10-30 04:42:00,
2013-10-29 23:47:00,73.6,70.5,30.00,SE,136,11.5,11.5,90,0.00,CLR,,0.00,WeatherDisplay:10.37,2013-10-30 04:47:00,
2013-10-29 23:52:00,73.5,70.4,30.00,ESE,117,10.4,10.4,90,0.00,CLR,,0.00,WeatherDisplay:10.37,2013-10-30 04:52:00,
2013-10-29 23:57:00,73.5,70.4,30.00,ESE,123,8.1,8.1,90,0.00,CLR,,0.00,WeatherDisplay:10.37,2013-10-30 04:57:00,